This demonstration page uses our WeatherBlox Daily Observations layout. Learn more.

Left ArrowRight Arrow

36.17497, -115.13722

Hourly Observations for May 17, 2016

Temp ( °F °C ) Dew Point ( °F °C ) Humidity (%) Winds ( mph kmh ) Pressure ( in mb ) Visibility ( mi km ) Precip ( " mm )
12:53 am 00:53 Clear 74 23.3 35 1.7 24 24 NNW 16 26 29.78 1009 10 16 N/A
1:53 am 01:53 Clear 71 21.7 38 3.3 30 30 NNW 21 33 29.80 1009 10 16 N/A
2:53 am 02:53 Clear 70 21.1 38 3.3 31 31 NNW 22 35 29.80 1009 10 16 N/A
3:53 am 03:53 Cloudy 69 20.6 38 3.3 32 32 N 22 35 29.81 1010 10 16 N/A
4:53 am 04:53 Mostly Clear 68 20 40 4.4 36 36 N 22 35 29.83 1010 10 16 N/A
5:53 am 05:53 Cloudy 68 20 41 5 38 38 NNW 21 33 29.84 1011 10 16 N/A
6:53 am 06:53 Mostly Cloudy 66 18.9 42 5.6 42 42 N 20 31 29.88 1012 10 16 N/A
7:53 am 07:53 Cloudy 66 18.9 41 5 40 40 NNW 22 35 29.91 1013 10 16 N/A
8:53 am 08:53 Cloudy 64 17.8 44 6.7 48 48 N 25 41 29.93 1014 10 16 N/A
9:53 am 09:53 Cloudy with Light Rain 62 16.7 47 8.3 58 58 NNW 22 35 29.97 1015 10 16 N/A
10:53 am 10:53 Cloudy 60 15.6 48 8.9 65 65 NNW 20 31 29.99 1016 10 16 N/A
11:53 am 11:53 Mostly Sunny 64 17.8 47 8.3 54 54 NNW 21 33 29.99 1016 10 16 N/A
12:53 pm 12:53 Mostly Sunny 65 18.3 47 8.3 52 52 NNW 23 37 29.98 1015 10 16 N/A
1:53 pm 13:53 Sunny 65 18.3 43 6.1 45 45 NNW 21 33 29.96 1015 10 16 N/A
2:53 pm 14:53 Sunny 71 21.7 42 5.6 35 35 NW 21 33 29.95 1014 10 16 N/A
3:53 pm 15:53 Mostly Sunny 70 21.1 42 5.6 37 37 NNW 16 26 29.93 1013 10 16 N/A
4:53 pm 16:53 Sunny 74 23.3 43 6.1 33 33 NNW 10 17 29.91 1013 10 16 N/A
5:53 pm 17:53 Mostly Sunny 74 23.3 40 4.4 29 29 N 7 11 29.91 1013 10 16 N/A
6:53 pm 18:53 Mostly Sunny 74 23.3 42 5.6 32 32 N 8 13 29.93 1014 10 16 N/A
7:53 pm 19:53 Mostly Cloudy 72 22.2 44 6.7 37 37 NNW 8 13 29.93 1014 10 16 N/A
8:53 pm 20:53 Clear 70 21.1 45 7.2 41 41 NNW 9 15 29.93 1014 10 16 N/A
9:53 pm 21:53 Clear 70 21.1 46 7.8 42 42 N 8 13 29.96 1015 10 16 N/A
10:53 pm 22:53 Mostly Clear 69 20.6 44 6.7 41 41 NNW 7 11 29.98 1015 10 16 N/A
11:53 pm 23:53 Mostly Clear 69 20.6 46 7.8 44 44 N N/A 29.98 1015 10 16 N/A

Powered by AerisWeather